Regional Weather Roundup
Issued by NWS Green Bay, WI

Home | Current Version | Previous Version | Text Only | Print | Product List | Glossary On
Versions: 1 2 3 4 5 6 7 8 9 10 11 12 13 14 15 16 17 18 19 20 21 22 23 24 25 26 27 28 29 30 31 32 33 34 35 36 37 38 39 40 41 42 43 44 45 46 47 48 49 50
000
ASUS43 KGRB 281959
RWRGRB

NORTH-CENTRAL AND NORTHEAST WISCONSIN REGIONAL WEATHER ROUNDUP
NATIONAL WEATHER SERVICE GREEN BAY WI
200 PM CST SAT FEB 28 2015

WIZ005-009-010>012-018-019-282100-
NORTH CENTRAL WISCONSIN

CITY           SKY/WX    TMP DP  RH WIND       PRES   REMARKS
IRONWOOD       MOSUNNY   21   0  39 SW12      30.34F WCI   9
MANITOWISH WTR NOT AVBL
ARBOR VITAE    NOT AVBL
EAGLE RIVER    NOT AVBL
LAND O LAKES   NOT AVBL
RHINELANDER    SUNNY     18  -2  41 SW13G18   30.41F WCI   5
PHILLIPS       NOT AVBL
ANTIGO         NOT AVBL
TOMAHAWK       NOT AVBL
MERRILL        NOT AVBL
$$

WIZ013-073-282100-
NORTHEAST WISCONSIN

CITY           SKY/WX    TMP DP  RH WIND       PRES   REMARKS
IRON MOUNTAIN  SUNNY     23   1  38 S13       30.42F
MARINETTE      SUNNY     19   3  49 SW10G17   30.53F WCI   8
$$

WIZ017-030-035>037-045-282100-
CENTRAL WISCONSIN

CITY           SKY/WX    TMP DP  RH WIND       PRES   REMARKS
MEDFORD        NOT AVBL
WAUSAU         SUNNY     16  -1  47 S10       30.46F WCI   4
MOSINEE        SUNNY     18  -2  41 SW14      30.49F WCI   4
MARSHFIELD     SUNNY     18  -3  39 S14       30.47F WCI   4
WISC RAPIDS    SUNNY     17  -6  35 SW14      30.52F WCI   3
STEVENS POINT  NOT AVBL
WAUPACA        NOT AVBL
SHAWANO        NOT AVBL
CLINTONVILLE   NOT AVBL
$$

WIZ038-039-048-051-282100-
FOX VALLEY

CITY           SKY/WX    TMP DP  RH WIND       PRES   REMARKS
NWS GREEN BAY  SUNNY     19   5  54 S13       30.56F WCI   6
APPLETON       MOSUNNY   18   0  45 S13       30.55F WCI   4
OSHKOSH        SUNNY     17  -2  43 SW10      30.56F WCI   5
FOND DU LAC    SUNNY     19  -1  41 S14       30.56F WCI   6
$$

WIZ022-050-052-282100-
EAST CENTRAL WISCONSIN

CITY           SKY/WX    TMP DP  RH WIND       PRES   REMARKS
STURGEON BAY   SUNNY     19   3  49 SW10      30.57F WCI   8
MANITOWOC      NOT AVBL
SHEBOYGAN      SUNNY     19   0  43 SW9       30.58F WCI   8
$$

LMZ563-521-522-541>543-282100-
LAKESHORE

STATION/POSITION TIME  TEMP    WIND        PRES    VSBY  WAVE
                       AIR SEA DIR/SP/G                  HT/PER
                 (UTC) (F)     (DEG/KT/KT) (MB)    (MI)  (FT/S)
SHEBOYGAN LKSHOR 1900   16     170/ 13/ 15 1038.3F
KEWAUNEE LKSHORE 1900   19     190/ 11/ 13 1034.6F
TWO RIVERS CG    1900   17                 1036.1      6
NORTHPORT PIER   1900   21     200/  3/ 13 1034.9F
SISTER BAY LKSHO 1900   27     230/ 12/ 15   N/A
STURGEON BAY CG  1900   19     210/  7     1036.1      6
CHAMBERS ISLAND  1900   15     180/ 10/ 15 1034.9F
MENOMINEE LKSHOR 1900   15     170/ 10     1035.0F
$$


USA.gov is the U.S. government's official web portal to all federal, state and local government web resources and services.